User: anonymous   Login
Location: Newark
(48.4317°S, 179.1125°W)
Time: 08:56:05
(UTC+00:00)
Language:

N. Korean satellite - Orbit

View from above orbital plane
View from above orbital plane
View from above satellite
View from above satellite

Ground track
Ground track

The orbit data is extracted from the following two-line orbital elements,

1 39026U 12072A   20055.59708551 +.00000880 +00000-0 +33972-4 0  9998
2 39026 097.2200 055.8068 0035882 290.0969 069.6412 15.28353973399853
Epoch (UTC): 24 February 2020 14:19:48
Eccentricity: 0.0035882
inclination: 97.2200°
perigee height: 456 km
apogee height: 505 km
right ascension of ascending node: 55.8068°
argument of perigee: 290.0969°
revolutions per day: 15.28353973
mean anomaly at epoch: 69.6412°
orbit number at epoch: 39985

The dashed part of the orbit path shows where the satellite is in the earth's shadow,  

DLR